logo
App data

Retrovirus

Retrovirus is a six degrees of freedom shooter which sends players into the depths of a computer on a search and destroy mission against an invasive virus. Retrovirus is being created by Cadenza Interactive, the indie studio behind the popular tower defense game Sol Survivor.
Store | Hub | SteamDB | Site
Developer: Cadenza Interactive Publisher: Cadenza Interactive
Genre: Action, Indie
Languages: English
Tags: Indie (36), Action (36), 6DOF (34), Shooter (16), Sci-fi (15), FPS (13), VR (8), First-Person (5)
Category: Single-player, Multi-player, Co-op, Steam Achievements, Full controller support, Steam Trading Cards, Steam Workshop
Release date: Jan 31, 2013
Price: $2.49 75%
Score rank: 37% Userscore: 73% Old userscore: 74% Metascore: 70%
Owners: 20,000 .. 50,000
Players (experimental): 50,180
Followers: 594
Peak concurrent players yesterday: 3
Playtime total: 09:02 (average) 03:44 (median)

Steam Spy is still in beta, so expect major bugs.

Owners data:

Access restricted.

This feature is only available to users with special access rights. Sorry.

If you want to proceed, you need to register or log in first and then back Steam Spy on Patreon. Look for Indie or Pro pledge.

Don't forget to use the same email as on Steam Spy!

Audience in 2 weeks:

Access restricted.

This feature is only available to users with special access rights. Sorry.

If you want to proceed, you need to register or log in first and then back Steam Spy on Patreon. Look for Indie or Pro pledge.

Don't forget to use the same email as on Steam Spy!

Peak daily concurrent players:

CCU data courtesy of SteamDB. Used with permission.

Hourly concurrent players:

Daily Twitch stats:

Hourly Twitch stats:

YouTube:

The views data is based on top 50 videos uploaded last week. Actual number of views might be more than the number shown.

The displayed number of videos uploaded yesterday is limited to 50, so if there were more videos uploaded, the number will still show 50.

If the game has commonly used word as its name (like "FEAR" or "Volume") its number of Youtube views might be wrong.

Games similar to this one:

# Game Release date
Price
Score rank
(Userscore / Metascore)
Owners
Players
Playtime (Median)
1 Militia Dec 2, 2015 $2.9999% (98%)0 .. 20,0000%00:00 (00:00)
2 Little Big Adventure 2 Oct 20, 2015 $1.9999% (98%)0 .. 20,0000%00:00 (00:00)
3 Dungeon Warfare Nov 4, 2015 $9.9997% (97%)20,000 .. 50,0000%00:00 (00:00)
4 Seven Kingdoms: Ancient Adversaries Mar 22, 2016 $2.39N/A (N/A)0 .. 20,0000%00:00 (00:00)
5 Imperium Galactica Jan 19, 2017 $4.99N/A (N/A)0 .. 20,0000%00:00 (00:00)
6 Defend The Highlands Nov 6, 2015 $2.4995% (96%)100,000 .. 200,0001.37%01:39 (02:11)
7 Voodoo Vince: Remastered Apr 18, 2017 $14.9995% (96%/63%)0 .. 20,0000%00:00 (00:00)
8 Darknet Jun 8, 2017 $14.9993% (95%)0 .. 20,0000%00:00 (00:00)
9 PixelJunk Shooter Nov 11, 2013 $1.3493% (95%/73%)100,000 .. 200,0000%00:00 (00:00)
10 Templar Battleforce Sep 21, 2015 $4.9993% (95%)20,000 .. 50,0000%00:00 (00:00)
11 Chicken Invaders 2 Mar 4, 2016 $1.9993% (95%)0 .. 20,0000%00:00 (00:00)
12 Hegemony Gold: Wars of Ancient Greece Mar 30, 2012 $4.9493% (95%)20,000 .. 50,0000%00:00 (00:00)
13 Outcast 1.1 Dec 18, 2014 $1.7993% (95%)20,000 .. 50,0000%00:00 (00:00)
14 Kalimba Apr 22, 2015 $2.4990% (94%/81%)0 .. 20,0000%00:00 (00:00)
15 Audio Arena Jul 25, 2016 $1.04N/A (N/A)0 .. 20,0000%00:00 (00:00)
16 Flywrench Aug 24, 2015 $3.4990% (94%)0 .. 20,0000%00:00 (00:00)
17 Star Trek: Judgment Rites May 8, 2015 $9.99N/A (N/A)0 .. 20,0000%00:00 (00:00)
18 Run or Die Dec 11, 2014 $0.4990% (94%)0 .. 20,0000%00:00 (00:00)
19 Gold Rush! Classic Dec 23, 1988 $1.4990% (94%)200,000 .. 500,0001.45%03:20 (04:23)
20 Neon Chrome Apr 28, 2016 $4.4990% (94%/74%)0 .. 20,0000.34%00:05 (00:01)
21 Majesty Gold HD Mar 23, 2001 $2.4990% (94%)100,000 .. 200,0000%00:00 (00:00)
22 Stick it to The Man! Dec 13, 2013 $2.7990% (94%/83%)20,000 .. 50,0000%00:00 (00:00)
23 Supercharged Robot VULKAISER Jun 4, 2015 $2.4990% (94%)20,000 .. 50,0000%00:00 (00:00)
24 ESCHATOS Sep 18, 2015 $8.9990% (94%)0 .. 20,0000%00:00 (00:00)
25 Pharaoh Rebirth+ Mar 17, 2016 $2.9987% (93%)0 .. 20,0000%00:00 (00:00)
26 Handsome Mr. Frog Aug 8, 2016 $0.4987% (93%)0 .. 20,0000%00:00 (00:00)
27 Eufloria HD Oct 14, 2014 $14.9987% (93%)200,000 .. 500,0000%00:00 (00:00)
28 Tallowmere Mar 3, 2015 $2.3987% (93%)20,000 .. 50,0004.17%02:23 (01:32)
29 Major Mayhem Feb 24, 2014 $4.9987% (93%)20,000 .. 50,0000%00:00 (00:00)
30 Super Trench Attack! Jul 24, 2014 $0.4987% (93%)50,000 .. 100,0001.15%02:44 (01:49)
31 Bleed Jul 3, 2013 $1.9987% (93%)100,000 .. 200,0000.86%04:03 (01:21)
32 Adventure in the Tower of Flight Dec 23, 2015 $1.9987% (93%)0 .. 20,0000%00:00 (00:00)
33 Kick Ass Commandos Nov 17, 2016 $4.9987% (93%)0 .. 20,0000%00:00 (00:00)
34 Knightmare Tower Jun 16, 2014 $0.9983% (92%)0 .. 20,0000%00:00 (00:00)
35 Battle Academy 2: Eastern Front Sep 12, 2014 $9.9983% (92%/78%)0 .. 20,0000%00:00 (00:00)
36 Ys VI: The Ark of Napishtim Apr 28, 2015 $5.9983% (92%)50,000 .. 100,0000%00:00 (00:00)
37 Anarcute Jul 12, 2016 $5.9983% (92%/79%)0 .. 20,0004.76%02:48 (00:56)
38 The Juicer Sep 11, 2015 $0.4983% (92%)20,000 .. 50,0000.74%03:54 (01:18)
39 Death Ray Manta SE Sep 17, 2015 $0.7983% (92%)20,000 .. 50,0000%00:00 (00:00)
40 Super Cyborg Jul 8, 2015 $1.9983% (92%)20,000 .. 50,0001.04%04:08 (01:22)
41 Shmups Skill Test シューティング技能検定 Jun 9, 2016 $3.99N/A (N/A)0 .. 20,0000%00:00 (00:00)
42 Below Kryll Sep 7, 2015 $0.9983% (92%)0 .. 20,0000%00:00 (00:00)
43 Momodora III Jul 1, 2014 $1.9980% (91%)50,000 .. 100,0001.45%01:05 (00:21)
44 Clash of Puppets Dec 16, 2014 $2.9980% (91%)0 .. 20,0000%00:00 (00:00)
45 Skulls of the Shogun Jul 29, 2013 $3.9980% (91%/72%)100,000 .. 200,0000.4%00:51 (00:17)
46 Angry Video Game Nerd II: ASSimilation Mar 29, 2016 $9.9980% (91%)20,000 .. 50,0000%00:00 (00:00)
47 Earth Defense Force: Insect Armageddon Dec 14, 2011 $9.9980% (91%/69%)50,000 .. 100,0000%00:00 (00:00)
48 Mad Bullets Jun 10, 2016 $1.9980% (91%)0 .. 20,0000%00:00 (00:00)
49 Armed with Wings: Rearmed Jun 1, 2017 $9.9980% (91%)20,000 .. 50,0000%00:00 (00:00)
50 Miracle Fly Oct 26, 2015 $2.3980% (91%)20,000 .. 50,0000%00:00 (00:00)
51 Explosionade Sep 23, 2015 $3.99N/A (N/A)0 .. 20,0001.67%00:46 (00:15)
52 Warrior Kings: Battles Sep 30, 2003 $1.4980% (91%/64%)20,000 .. 50,0000%00:00 (00:00)
53 Demons with Shotguns Apr 25, 2016 $0.99N/A (N/A)0 .. 20,0000%00:00 (00:00)
54 Blue Estate The Game Apr 8, 2015 $12.9980% (91%/59%)50,000 .. 100,0000%00:00 (00:00)
55 Dandy: Or a Brief Glimpse Into the Life of the Candy Alchemist Aug 4, 2015 $9.99N/A (N/A)0 .. 20,0000%00:00 (00:00)
56 Wars and Warriors: Joan of Arc Sep 3, 2015 $1.7480% (91%/60%)0 .. 20,0000%00:00 (00:00)
57 RIVE: Wreck, Hack, Die, Retry! Sep 13, 2016 $14.9980% (91%)200,000 .. 500,0000.28%00:05 (00:01)
58 Khet 2.0 Oct 1, 2014 $2.4980% (91%)50,000 .. 100,0000%00:00 (00:00)
59 Valley Aug 24, 2016 $3.9980% (91%)100,000 .. 200,0000%00:00 (00:00)
60 Spider: Rite of the Shrouded Moon Aug 6, 2015 $2.9980% (91%)20,000 .. 50,0000%00:00 (00:00)
61 Ittle Dew Jul 23, 2013 $4.9980% (91%/67%)100,000 .. 200,0000%00:00 (00:00)
62 Headlander Jul 25, 2016 $5.9976% (90%/74%)20,000 .. 50,0000%00:00 (00:00)
63 Planet of the Eyes Aug 24, 2015 $2.4976% (90%/66%)50,000 .. 100,0000%00:00 (00:00)
64 Wild Guns Reloaded Jul 11, 2017 $19.9976% (90%)0 .. 20,0000%00:00 (00:00)
65 Kohan: Ahriman's Gift Nov 6, 2001 $9.99N/A (N/A/79%)0 .. 20,0000%00:00 (00:00)
66 Weird Hero Nov 18, 2016 $0.7476% (90%)0 .. 20,0000%00:00 (00:00)
67 Kohan II: Kings of War Sep 21, 2004 $9.9976% (90%/81%)20,000 .. 50,0000%00:00 (00:00)
68 Near Death Aug 2, 2016 $3.7476% (90%/70%)0 .. 20,0000%00:00 (00:00)
69 Apocalypse: Party's Over May 30, 2016 $2.4976% (90%)0 .. 20,0000%00:00 (00:00)
70 Superstatic Sep 15, 2015 $0.99N/A (N/A)0 .. 20,0000%00:00 (00:00)
71 Death's Hangover Jan 20, 2017 $0.4976% (90%)20,000 .. 50,0004.82%02:07 (00:46)
72 Swords and Soldiers HD Dec 2, 2010 $1.9976% (90%)50,000 .. 100,0001.38%00:12 (00:06)
73 Ace of Seafood Apr 8, 2016 $5.9976% (90%)0 .. 20,0000%00:00 (00:00)
74 Silent Storm Gold Edition Sep 9, 2004 $2.4976% (90%/83%)200,000 .. 500,0000%00:00 (00:00)
75 Spectromancer Oct 15, 2008 $9.9973% (89%)20,000 .. 50,0000%00:00 (00:00)
76 CastleStorm Jul 29, 2013 $2.4973% (89%/73%)100,000 .. 200,0000%00:00 (00:00)
77 Fort Meow Jun 24, 2015 $1.5973% (89%)0 .. 20,0000%00:00 (00:00)
78 Codename: Panzers, Phase Two Feb 18, 2016 $3.7473% (89%/80%)0 .. 20,0000%00:00 (00:00)
79 Sneaky Sneaky Nov 12, 2014 $4.9973% (89%/63%)0 .. 20,0000%00:00 (00:00)
80 Lethe - Episode One Aug 1, 2016 $2.9973% (89%)0 .. 20,0005.26%01:41 (01:36)
81 Reverse Crawl Sep 24, 2015 $2.0373% (89%)20,000 .. 50,0000%00:00 (00:00)
82 Zombo Buster Rising Oct 2, 2016 $0.9973% (89%)0 .. 20,0001.85%02:38 (00:52)
83 Amaranthine Apr 6, 2016 $0.8973% (89%)0 .. 20,0004.76%02:45 (01:30)
84 Warhammer 40,000: Dawn of War – Winter Assault Jan 1, 2006 $3.2473% (89%)500,000 .. 1,000,0000.45%02:47 (01:51)
85 MoonBase Commander Aug 13, 2002 $1.4973% (89%/77%)20,000 .. 50,0000%00:00 (00:00)
86 Earn to Die 2 May 5, 2016 $4.9970% (88%)0 .. 20,0000%00:00 (00:00)
87 The Way May 20, 2016 $3.7470% (88%/67%)20,000 .. 50,0002.63%02:42 (02:01)
88 Viking Squad Oct 4, 2016 $7.4970% (88%)0 .. 20,0000%00:00 (00:00)
89 Super Furball Apr 21, 2015 $0.91N/A (N/A)0 .. 20,0000%00:00 (00:00)
90 Anodyne Mar 22, 2013 $3.3970% (88%/75%)100,000 .. 200,0000%00:00 (00:00)
91 Battlepillars Gold Edition Apr 28, 2014 $2.4970% (88%)20,000 .. 50,0000%00:00 (00:00)
92 Tcheco in the Castle of Lucio Jun 22, 2015 $0.4970% (88%)20,000 .. 50,0000.42%00:02 (00:00)
93 The Fall May 30, 2014 $1.9970% (88%/76%)200,000 .. 500,0000.75%00:36 (00:24)
94 Avoid - Sensory Overload Apr 8, 2014 $0.9970% (88%)0 .. 20,0000%00:00 (00:00)
95 Greed Corp Dec 10, 2010 $9.9970% (88%/76%)200,000 .. 500,0000%00:00 (00:00)
96 Lethal VR Nov 8, 2016 $3.7470% (88%/66%)0 .. 20,0000%00:00 (00:00)
97 Atom Zombie Smasher Mar 14, 2011 $7.9970% (88%/75%)200,000 .. 500,0000%00:00 (00:00)
98 Bullet Sorrow VR Apr 17, 2017 $19.9968% (87%)0 .. 20,0000%00:00 (00:00)
99 Spooky Cats Jun 4, 2015 $0.7468% (87%)20,000 .. 50,0000%00:00 (00:00)
100 Mr. Shifty Apr 13, 2017 $4.9468% (87%)50,000 .. 100,0001.88%02:29 (02:32)
101 Blacksea Odyssey Jun 1, 2016 $4.9968% (87%/74%)0 .. 20,0000%00:00 (00:00)
102 Civilization IV: Warlords Jul 24, 2006 $4.9968% (87%/84%)1,000,000 .. 2,000,0000%00:00 (00:00)
103 Neon Shadow Aug 25, 2016 $4.99N/A (N/A)0 .. 20,0000%00:00 (00:00)
104 The Tiny Tale 2 Jan 30, 2015 $1.74N/A (N/A)0 .. 20,0000%00:00 (00:00)
105 Sang-Froid - Tales of Werewolves Apr 5, 2013 Free68% (87%/79%)200,000 .. 500,0000%00:00 (00:00)
106 Shadow Blade: Reload Aug 10, 2015 $4.4968% (87%/70%)20,000 .. 50,0000.98%03:43 (01:14)
107 TRON 2.0 Aug 22, 2003 $3.4968% (87%/84%)50,000 .. 100,0000%00:00 (00:00)
108 Syrian Warfare Feb 21, 2017 $4.9468% (87%)20,000 .. 50,0008%01:41 (01:07)
109 Supreme Commander Feb 20, 2007 $3.2468% (87%/86%)500,000 .. 1,000,0000.2%00:11 (00:03)
110 Super Chibi Knight Jun 24, 2015 $4.9965% (86%)20,000 .. 50,0002.27%04:09 (01:23)
111 Meltdown Jun 5, 2014 $2.4465% (86%)50,000 .. 100,0000%00:00 (00:00)
112 Ghost Master Aug 23, 2003 $0.7465% (86%/81%)100,000 .. 200,0000%00:00 (00:00)
113 Executive Assault Jul 17, 2015 $12.9965% (86%)20,000 .. 50,0000%00:00 (00:00)
114 Rush for Berlin Gold Oct 29, 2009 $2.4965% (86%/76%)20,000 .. 50,0000%00:00 (00:00)
115 Time Rifters Oct 21, 2014 $3.9965% (86%)0 .. 20,0000%00:00 (00:00)
116 Star Ruler Sep 20, 2010 $2.4965% (86%)100,000 .. 200,0000%00:00 (00:00)
117 Concealed Intent Aug 2, 2016 $2.99N/A (N/A)0 .. 20,0000%00:00 (00:00)
118 VelocityUltra Dec 12, 2013 $4.9965% (86%)50,000 .. 100,0000%00:00 (00:00)
119 Age of Wonders Shadow Magic Oct 2010 $2.4965% (86%/82%)100,000 .. 200,0000%00:00 (00:00)
120 Arcane Sorcery Sep 15, 2015 $4.99N/A (N/A)0 .. 20,0000%00:00 (00:00)
121 Magnifico Dec 2, 2014 $1.2465% (86%)50,000 .. 100,0001.72%01:27 (00:29)
122 The Haunted: Hells Reach Oct 24, 2011 $1.7965% (86%/51%)50,000 .. 100,0000%00:00 (00:00)
123 ShootMania Storm Apr 10, 2013 $6.7962% (85%/76%)50,000 .. 100,0000%00:00 (00:00)
124 NOBUNAGA'S AMBITION: Souzou (Traditional Chinese version) Aug 2014 $17.1962% (85%)20,000 .. 50,0000%00:00 (00:00)
125 Slash or Die Jun 3, 2016 $1.1962% (85%)20,000 .. 50,0000%00:00 (00:00)
126 Steel Rain Dec 3, 2015 $2.7962% (85%)0 .. 20,0000%00:00 (00:00)
127 ENSLAVED: Odyssey to the West Premium Edition Oct 24, 2013 $4.9962% (85%/70%)200,000 .. 500,0000.24%00:13 (00:04)
128 CRYPTARK Jun 20, 2017 $3.7462% (85%/80%)50,000 .. 100,0001.92%01:35 (00:31)
129 Ballistic Tanks Sep 20, 2016 $0.9962% (85%)0 .. 20,0000%00:00 (00:00)
130 Interloper May 21, 2015 Free62% (85%/77%)50,000 .. 100,0000%00:00 (00:00)
131 Child Of Ault Jan 24, 2017 $9.99N/A (N/A)0 .. 20,0000%00:00 (00:00)
132 Foresight Nov 28, 2014 $2.99N/A (N/A)0 .. 20,0001.16%00:15 (00:05)
133 The Men of Yoshiwara: Kikuya Oct 14, 2015 $9.8960% (84%)0 .. 20,0000%00:00 (00:00)
134 Conflict Desert Storm Sep 13, 2002 $0.9760% (84%/56%)20,000 .. 50,0000%00:00 (00:00)
135 Gurgamoth Feb 16, 2016 $4.9960% (84%)50,000 .. 100,0000.76%02:35 (00:51)
136 Battle Group 2 Jun 13, 2014 $0.7960% (84%)50,000 .. 100,0000.96%00:01 (00:00)
137 Eador: Genesis Aug 7, 2009 $1.1960% (84%)50,000 .. 100,0000%00:00 (00:00)
138 Rooks Keep Dec 5, 2014 $2.7160% (84%)20,000 .. 50,0000%00:00 (00:00)
139 Legend (1994) Nov 10, 2015 $2.49N/A (N/A)0 .. 20,0000%00:00 (00:00)
140 Yomi May 8, 2015 $7.4960% (84%)0 .. 20,0000%00:00 (00:00)
141 Act of War: Direct Action Mar 14, 2005 $1.1960% (84%/82%)20,000 .. 50,0000%00:00 (00:00)
142 Last Knight: Rogue Rider Edition Oct 3, 2014 $1.5960% (84%)20,000 .. 50,0001.35%02:01 (00:40)
143 Western 1849 Reloaded Feb 10, 2017 $4.9960% (84%)0 .. 20,0000%00:00 (00:00)
144 Fat Chicken Dec 4, 2014 $9.99N/A (N/A)0 .. 20,0000%00:00 (00:00)
145 Dustoff Heli Rescue Mar 6, 2015 $3.9960% (84%)20,000 .. 50,0000%00:00 (00:00)
146 Advanced Tactics Gold Apr 12, 2011 $9.8957% (83%)0 .. 20,0000%00:00 (00:00)
147 Ace of Protectors Jun 27, 2016 $1.19N/A (N/A)0 .. 20,0001.96%01:23 (00:27)
148 Delta Force 2 Oct 31, 1999 $1.2457% (83%)50,000 .. 100,0004.17%01:57 (00:39)
149 GIBZ Apr 7, 2017 $2.7957% (83%)0 .. 20,0000%00:00 (00:00)
150 Orbital Gear Aug 7, 2014 $0.9957% (83%/59%)200,000 .. 500,0000.32%02:03 (00:41)
151 Galaxy Admirals Jan 17, 2017 $0.9957% (83%)50,000 .. 100,0000%00:00 (00:00)
152 TY the Tasmanian Tiger 4 Sep 17, 2015 $1.4957% (83%)0 .. 20,0000%00:00 (00:00)
153 Crush Your Enemies Jul 13, 2016 $0.9957% (83%/63%)20,000 .. 50,0003.13%01:30 (00:30)
154 Bulletstorm: Full Clip Edition Apr 7, 2017 $9.9957% (83%/76%)20,000 .. 50,0002.94%00:18 (00:06)
155 Rack N Ruin Sep 1, 2015 $9.9957% (83%)0 .. 20,0000%00:00 (00:00)
156 Disciples Sacred Lands Gold Oct 4, 1999 $0.7957% (83%)50,000 .. 100,0003.77%00:30 (00:19)
157 Sudden Strike 2 Gold Aug 30, 2002 $2.9957% (83%)20,000 .. 50,0000%00:00 (00:00)
158 NOBUNAGA'S AMBITION: Sphere of Influence Sep 1, 2015 $23.9957% (83%/70%)20,000 .. 50,0000%00:00 (00:00)
159 Defense Zone Jul 14, 2014 $2.39N/A (N/A)0 .. 20,0000%00:00 (00:00)
160 Square Brawl Oct 22, 2015 $4.9955% (82%)0 .. 20,0000%00:00 (00:00)
161 htoL#NiQ: The Firefly Diary / htoL#NiQ-ホタルノニッキ- May 18, 2016 $4.9955% (82%)0 .. 20,0000%00:00 (00:00)
162 PixelJunk Shooter Ultimate Oct 21, 2015 $1.4955% (82%)20,000 .. 50,0000%00:00 (00:00)
163 She Wants Me Dead May 13, 2016 $7.9955% (82%)0 .. 20,0000%00:00 (00:00)
164 Fleet Command May 15, 1999 $1.9955% (82%)20,000 .. 50,0000%00:00 (00:00)
165 After The End: The Harvest Jun 2, 2017 $1.99N/A (N/A)20,000 .. 50,0000%00:00 (00:00)
166 Shadow Ops: Red Mercury Sep 17, 2004 $1.7455% (82%/61%)20,000 .. 50,0000%00:00 (00:00)
167 Graviteam Tactics: Operation Star Mar 22, 2012 $22.4952% (81%)20,000 .. 50,0000%00:00 (00:00)
168 Fate of the World Feb 28, 2011 $4.9952% (81%/70%)50,000 .. 100,0000%00:00 (00:00)
169 Weapon of Choice Sep 23, 2015 $4.99N/A (N/A)0 .. 20,0002.08%00:20 (00:06)
170 In Verbis Virtus Apr 3, 2015 $4.9952% (81%)50,000 .. 100,0001.43%00:06 (00:02)
171 Jim Power -The Lost Dimension Sep 30, 2015 $2.49N/A (N/A)0 .. 20,0000%00:00 (00:00)
172 Age of Wonders Oct 2010 $1.4952% (81%)100,000 .. 200,0000%00:00 (00:00)
173 Enemy Mind Jun 6, 2014 $1.9952% (81%)200,000 .. 500,0000.27%00:01 (00:00)
174 Anomaly 2 May 15, 2013 $2.9952% (81%/77%)200,000 .. 500,0000.3%00:13 (00:04)
175 Junk Jack Nov 30, 2016 $11.2452% (81%)0 .. 20,0000%00:00 (00:00)
176 Toadled Sep 22, 2016 $0.4952% (81%)50,000 .. 100,0000%00:00 (00:00)
177 Blade Arcus from Shining: Battle Arena Jul 28, 2016 $11.9952% (81%)0 .. 20,0000%00:00 (00:00)
178 Anomaly Warzone Earth Mobile Campaign Nov 6, 2013 $0.9950% (80%)100,000 .. 200,0000%00:00 (00:00)
179 Gun Metal Sep 23, 2003 $2.9950% (80%)200,000 .. 500,0000.19%01:34 (00:31)
180 Perimeter May 21, 2004 $0.9950% (80%/77%)20,000 .. 50,0000%00:00 (00:00)
181 Fantasy Wars Aug 6, 2010 $1.2450% (80%/67%)50,000 .. 100,0000%00:00 (00:00)
182 Age of Gladiators Feb 25, 2016 $2.9950% (80%)20,000 .. 50,0000%00:00 (00:00)
183 Dominions 3: The Awakening Sep 10, 2013 $4.9950% (80%/82%)0 .. 20,0000%00:00 (00:00)
184 Trigger Runners Mar 3, 2016 $1.9950% (80%)0 .. 20,0000%00:00 (00:00)
185 Cultures - 8th Wonder of the World Mar 26, 2015 $0.9950% (80%)50,000 .. 100,0000%00:00 (00:00)
186 Hail to the King: Deathbat Oct 30, 2014 $5.9950% (80%)0 .. 20,0000%00:00 (00:00)
187 Conquest of Elysium 3 Oct 24, 2012 $2.4950% (80%)20,000 .. 50,0000%00:00 (00:00)
188 Ninjahtic Jul 6, 2015 $0.7950% (80%)0 .. 20,0000%00:00 (00:00)
189 Making History: The Calm & the Storm Mar 13, 2007 $0.7450% (80%/70%)50,000 .. 100,0000%00:00 (00:00)
190 Demolition Inc. Sep 19, 2011 $5.9950% (80%)50,000 .. 100,0000%00:00 (00:00)
191 Legends of Callasia Jun 10, 2016 Free50% (80%)20,000 .. 50,0000%00:00 (00:00)
192 7,62 High Calibre Aug 24, 2007 $1.2450% (80%)50,000 .. 100,0000%00:00 (00:00)
193 Supreme Ruler 2020 Gold Jun 17, 2008 $1.9950% (80%/65%)50,000 .. 100,0000%00:00 (00:00)
194 Gatling Gears Aug 30, 2011 $9.9950% (80%)20,000 .. 50,0000%00:00 (00:00)
195 Bloodsports.TV Mar 30, 2015 $9.9950% (80%/69%)50,000 .. 100,0000%00:00 (00:00)
196 rymdkapsel Jan 30, 2014 $7.9950% (80%/77%)0 .. 20,0000%00:00 (00:00)
197 Monday Night Combat Jan 24, 2011 $0.7450% (80%/82%)200,000 .. 500,0000.44%00:46 (00:15)
198 Zeno Clash 2 Apr 30, 2013 $2.9950% (80%)200,000 .. 500,0001.09%00:58 (01:14)
199 Run Rabbit Run Mar 31, 2016 $2.6750% (80%)0 .. 20,0000%00:00 (00:00)
200 ROD: Revolt Of Defense Aug 12, 2016 $0.5950% (80%)20,000 .. 50,0005.56%00:30 (00:10)
201 Interplanetary May 12, 2015 N/A50% (80%)100,000 .. 200,0000%00:00 (00:00)
202 David. Mar 14, 2014 $0.5948% (79%)50,000 .. 100,0000.69%01:26 (00:28)
203 Fortified Feb 3, 2016 $2.9948% (79%)500,000 .. 1,000,00049.66%04:19 (04:52)
204 Star Wolves 3: Civil War Mar 2, 2010 $1.2448% (79%)100,000 .. 200,0000%00:00 (00:00)
205 Zombie Party Jun 10, 2016 $1.9948% (79%)100,000 .. 200,0002.17%03:10 (01:03)
206 Envoy Mar 17, 2016 $0.4948% (79%)50,000 .. 100,0000.42%00:44 (00:14)
207 Blue Effect VR Feb 8, 2017 $7.4948% (79%)0 .. 20,0000%00:00 (00:00)
208 Tiki Man Jun 5, 2015 $0.548% (79%)20,000 .. 50,0001.48%00:46 (00:30)
209 Battle Mages: Sign of Darkness Apr 13, 2006 $0.4948% (79%)20,000 .. 50,0000%00:00 (00:00)
210 Defense Zone 3 Ultra HD Dec 14, 2016 $2.3948% (79%)0 .. 20,0000%00:00 (00:00)
211 Nuclear Dawn Sep 26, 2011 $1.7948% (79%/71%)200,000 .. 500,0000.57%02:54 (01:25)
212 Vietnam ‘65 Mar 5, 2015 $4.8948% (79%/81%)0 .. 20,0000%00:00 (00:00)
213 Ironcast Mar 26, 2015 $7.4948% (79%/75%)20,000 .. 50,0000%00:00 (00:00)
214 Battlezone Gold Edition May 11, 2017 $34.9948% (79%)0 .. 20,0000%00:00 (00:00)
215 Locoland May 28, 2015 $0.4948% (79%)0 .. 20,0000%00:00 (00:00)
216 Klang Sep 22, 2016 $3.7448% (79%/71%)0 .. 20,0000%00:00 (00:00)
217 TRON RUN/r Feb 16, 2016 $5.9948% (79%)0 .. 20,0006.67%00:10 (00:03)
218 TASTEE: Lethal Tactics May 10, 2016 $3.7448% (79%)0 .. 20,0001.37%01:38 (00:32)
219 Caster Mar 19, 2009 $1.9948% (79%)200,000 .. 500,0000.26%01:21 (00:27)
220 Advent Rising Aug 9, 2005 $3.9948% (79%/70%)20,000 .. 50,0001.16%00:08 (00:02)
221 Protoshift Jan 15, 2016 $0.9948% (79%)0 .. 20,0000%00:00 (00:00)
222 Warhammer 40,000: Armageddon Nov 26, 2014 $9.5946% (78%/68%)20,000 .. 50,00010%21:40 (14:26)
223 Mysterium: A Psychic Clue Game Jan 12, 2017 $9.9946% (78%)50,000 .. 100,0000%00:00 (00:00)
224 Zombie Killtime Aug 4, 2015 $1.99N/A (N/A)0 .. 20,0000%00:00 (00:00)
225 Umihara Kawase Shun: Steam Edition Nov 24, 2015 $5.99N/A (N/A)0 .. 20,0000%00:00 (00:00)
226 Aeon Command Jul 3, 2014 $0.7446% (78%)20,000 .. 50,0000%00:00 (00:00)
227 Making History II: The War of the World Jun 22, 2010 $7.4946% (78%/38%)20,000 .. 50,0002.22%05:04 (01:41)
228 Star Realms Mar 8, 2016 Free46% (78%)100,000 .. 200,0001.67%00:10 (00:03)
229 Vector Strain Dec 9, 2015 $1.49N/A (N/A)20,000 .. 50,0000%00:00 (00:00)
230 PAC-MAN and the Ghostly Adventures Oct 29, 2013 $4.9946% (78%)0 .. 20,0000%00:00 (00:00)
231 Tank Destroyer Mar 9, 2017 $2.9946% (78%)20,000 .. 50,0000%00:00 (00:00)
232 Deadly 30 Jan 8, 2014 $1.2446% (78%)100,000 .. 200,0000%00:00 (00:00)
233 Strike Suit Zero: Director's Cut Apr 8, 2014 $3.9946% (78%)20,000 .. 50,0000%00:00 (00:00)
234 Pharaonic Apr 28, 2016 $3.7446% (78%)0 .. 20,0000%00:00 (00:00)
235 Starscape Mar 27, 2003 $1.9946% (78%)20,000 .. 50,0000%00:00 (00:00)
236 Mold on Pizza Sep 25, 2015 $5.9946% (78%)0 .. 20,0000%00:00 (00:00)
237 King of Dragon Pass Jul 28, 2015 $3.5946% (78%)20,000 .. 50,0000%00:00 (00:00)
238 Dead Rising 2: Off the Record Oct 11, 2011 $5.9946% (78%/66%)200,000 .. 500,0000.27%00:35 (00:11)
239 The Legend of Dark Witch Dec 1, 2015 $2.4946% (78%)20,000 .. 50,0000%00:00 (00:00)
240 The Political Machine 2016 Feb 4, 2016 $4.9944% (77%)50,000 .. 100,0001.12%00:53 (00:17)
241 A.R.E.S. Extinction Agenda EX Oct 3, 2014 $1.9944% (77%)0 .. 20,0000%00:00 (00:00)
242 A Blind Legend Apr 7, 2016 $3.4944% (77%)0 .. 20,0000%00:00 (00:00)
243 Heroes of Might & Magic V: Hammers of Fate Nov 14, 2006 $2.4944% (77%/66%)200,000 .. 500,0000%00:00 (00:00)
244 Sky Gamblers: Storm Raiders Jan 7, 2015 $3.3944% (77%)0 .. 20,0000%00:00 (00:00)
245 Bet On Soldier Sep 26, 2005 $1.9944% (77%)100,000 .. 200,0000%00:00 (00:00)
246 McDROID Sep 5, 2014 $9.9944% (77%)0 .. 20,0000%00:00 (00:00)
247 Dangerous Waters Feb 7, 2006 $2.9944% (77%/82%)50,000 .. 100,0000%00:00 (00:00)
248 Curse of the Crescent Isle DX Aug 21, 2015 $1.5444% (77%)0 .. 20,0000%00:00 (00:00)
249 Starchaser: Priestess of the Night Sky Jul 24, 2015 $3.29N/A (N/A)0 .. 20,0000%00:00 (00:00)
250 Olympia Rising Jul 23, 2015 $4.9944% (77%)0 .. 20,0000%00:00 (00:00)
251 Monster Monpiece Mar 14, 2017 $3.9942% (76%)0 .. 20,0004.88%04:07 (02:44)
252 BloodRayne Sep 9, 2003 $2.9942% (76%/65%)50,000 .. 100,0000%00:00 (00:00)
253 Velocity 2X Aug 19, 2015 $4.9942% (76%)50,000 .. 100,0000%00:00 (00:00)
254 Fist Puncher Jun 21, 2013 $0.9942% (76%/73%)20,000 .. 50,0000%00:00 (00:00)
255 Victory At Sea Aug 8, 2014 $4.9942% (76%)20,000 .. 50,0000%00:00 (00:00)
256 Riddled Corpses Jun 2, 2015 $1.9942% (76%)20,000 .. 50,0003.9%49:44 (49:12)
257 Z Jul 4, 2014 $0.6942% (76%)100,000 .. 200,0002.65%04:27 (04:57)
258 Chaser Aug 22, 2003 $1.2442% (76%/66%)100,000 .. 200,0000%00:00 (00:00)
259 Heroes of Arca Feb 16, 2017 Free42% (76%)0 .. 20,0000%00:00 (00:00)
260 Cashtronauts Aug 31, 2016 $0.542% (76%)0 .. 20,0000%00:00 (00:00)
261 Extravaganza Rising Jul 21, 2016 N/AN/A (N/A)20,000 .. 50,0000%00:00 (00:00)
262 Star Hammer: The Vanguard Prophecy Jun 4, 2015 $19.9942% (76%/69%)0 .. 20,0000%00:00 (00:00)
263 Livelock Aug 30, 2016 $2.4942% (76%/73%)20,000 .. 50,0003.28%01:03 (00:41)
264 Deadlings: Rotten Edition Nov 11, 2014 $3.9942% (76%)50,000 .. 100,0000.76%00:08 (00:02)
265 Rocket Knight May 11, 2010 $14.9942% (76%/63%)0 .. 20,0000%00:00 (00:00)
266 Painkiller Hell & Damnation Oct 31, 2012 $4.9942% (76%/64%)500,000 .. 1,000,0000.79%01:45 (01:44)
267 Rocketbirds 2 Evolution Jan 26, 2017 $9.9942% (76%)0 .. 20,0000%00:00 (00:00)
268 Spirits of Xanadu Mar 26, 2015 $0.9942% (76%)20,000 .. 50,0001.49%04:16 (01:25)
269 Corgi Warlock Dec 3, 2015 $0.4942% (76%)20,000 .. 50,0000%00:00 (00:00)
270 WARSHIFT Oct 12, 2016 $6.4940% (75%)20,000 .. 50,0000%00:00 (00:00)
271 Civil War II Sep 17, 2013 $14.7940% (75%)0 .. 20,0000%00:00 (00:00)
272 AirMech Command Mar 8, 2017 $19.9940% (75%)0 .. 20,0000%00:00 (00:00)
273 CivCity: Rome Jul 24, 2006 $2.4940% (75%/67%)50,000 .. 100,0000%00:00 (00:00)
274 BossConstructor Oct 24, 2016 $14.9940% (75%)0 .. 20,0000%00:00 (00:00)
275 GEARGUNS Tank offensive Sep 20, 2016 $1.5140% (75%)20,000 .. 50,0000%00:00 (00:00)
276 Hunting Unlimited 2008 Sep 1, 2007 $3.49N/A (N/A)20,000 .. 50,0000%00:00 (00:00)
277 Albino Lullaby: Episode 1 Sep 14, 2015 $9.9940% (75%)20,000 .. 50,0000%00:00 (00:00)
278 Othello Aug 5, 2016 $9.9940% (75%)0 .. 20,0000%00:00 (00:00)
279 Platformines Mar 28, 2014 $2.9940% (75%/67%)100,000 .. 200,0000%00:00 (00:00)
280 FIVE: Champions of Canaan Sep 27, 2016 $0.9940% (75%)0 .. 20,0000%00:00 (00:00)
281 Pick a Hero Jun 9, 2016 $0.79N/A (N/A)0 .. 20,0000%00:00 (00:00)
282 Smell Of Death Jul 4, 2016 $9.9940% (75%)0 .. 20,0000%00:00 (00:00)
283 Zoo Empire Sep 3, 2015 $1.74N/A (N/A/59%)0 .. 20,0000%00:00 (00:00)
284 The Superfluous May 19, 2017 $1.24N/A (N/A)0 .. 20,0000%00:00 (00:00)
285 Perimeter: Emperor's Testament Aug 29, 2006 $0.99N/A (N/A/72%)20,000 .. 50,0000%00:00 (00:00)
286 Master Reboot Oct 29, 2013 $4.4940% (75%/59%)50,000 .. 100,0000%00:00 (00:00)
287 Onechanbara Z2: Chaos Jun 2, 2016 $19.9940% (75%)0 .. 20,0000%00:00 (00:00)
288 Vampire of the Sands Jul 17, 2015 $0.4939% (74%)20,000 .. 50,0001.39%02:14 (00:44)
289 Making History: The Great War Jan 29, 2015 $14.9939% (74%)20,000 .. 50,0003.7%04:45 (01:35)
290 Phoning Home Feb 7, 2017 $4.5939% (74%/61%)20,000 .. 50,0001.52%00:01 (00:00)
291 Battle Time Sep 29, 2016 $0.4939% (74%)50,000 .. 100,0000%00:00 (00:00)
292 FEIST Jul 23, 2015 $3.9939% (74%)20,000 .. 50,0000%00:00 (00:00)
293 TableTop Soccer Apr 22, 2016 $0.9939% (74%)0 .. 20,0000%00:00 (00:00)
294 Viktor Jun 13, 2014 $1.1939% (74%)20,000 .. 50,0000%00:00 (00:00)
295 Divinity: Dragon Commander Aug 6, 2013 $3.9939% (74%)200,000 .. 500,0000%00:00 (00:00)
296 Bubsy Two-Fur Dec 17, 2015 $1.9939% (74%)0 .. 20,0000%00:00 (00:00)
297 Codex of Victory Mar 16, 2017 $3.7439% (74%)0 .. 20,0000%00:00 (00:00)
298 Sid Meier’s Ace Patrol Aug 27, 2013 $1.2439% (74%)500,000 .. 1,000,0000.27%03:17 (01:05)
299 Distant Worlds: Universe May 23, 2014 $59.9939% (74%/81%)50,000 .. 100,0000%00:00 (00:00)
300 Ubersoldier II Jul 22, 2008 $1.4939% (74%/62%)100,000 .. 200,0000%00:00 (00:00)
301 Banzai Escape Feb 29, 2016 $5.9939% (74%)0 .. 20,0000%00:00 (00:00)
302 LEGO Indiana Jones 2: The Adventure Continues Feb 18, 2010 $6.7939% (74%/66%)20,000 .. 50,0002.38%05:49 (01:56)
303 Supreme Ruler Ultimate Oct 17, 2014 $7.9937% (73%)20,000 .. 50,0000%00:00 (00:00)
304 Death by Game Show Jan 22, 2016 $4.9937% (73%)20,000 .. 50,0001.25%01:23 (00:27)
305 VRZ: Torment May 18, 2017 $4.9937% (73%)0 .. 20,0000%00:00 (00:00)
306 Rex Rocket Aug 5, 2014 $4.9937% (73%)20,000 .. 50,0000%00:00 (00:00)
307 The Aquatic Adventure of the Last Human Jan 19, 2016 $1.9937% (73%/76%)0 .. 20,0000%00:00 (00:00)
308 Cross of the Dutchman Sep 10, 2015 $3.1437% (73%/59%)20,000 .. 50,0001.64%00:40 (00:13)
309 Civil War: Battle of Petersburg Feb 8, 2017 $0.4935% (72%)0 .. 20,0000%00:00 (00:00)
310 Cast of the Seven Godsends - Redux Jul 20, 2015 $1.9935% (72%)20,000 .. 50,0000%00:00 (00:00)
311 Lux Delux May 1, 2015 $9.9935% (72%)20,000 .. 50,0001.82%01:30 (00:30)
312 Rise & Shine Jan 13, 2017 $14.9935% (72%)20,000 .. 50,0000%00:00 (00:00)
313 King Arthur - The Role-playing Wargame Nov 24, 2009 $2.4935% (72%)200,000 .. 500,0000%00:00 (00:00)
314 Wyv and Keep: The Temple of the Lost Idol Aug 8, 2014 $1.4935% (72%)20,000 .. 50,0001.67%03:18 (01:06)
315 Auro: A Monster-Bumping Adventure Apr 13, 2016 $4.8935% (72%)0 .. 20,0000%00:00 (00:00)
316 Gold Rush! Anniversary Nov 7, 2014 $2.9935% (72%)100,000 .. 200,0000.67%01:55 (01:16)
317 Heaven Forest NIGHTS Mar 13, 2017 $0.9935% (72%)100,000 .. 200,0000.68%00:34 (00:33)
318 Fatal Fight Jun 10, 2016 $2.9935% (72%)0 .. 20,0000%00:00 (00:00)
319 There Came an Echo Feb 24, 2015 $5.9935% (72%/58%)20,000 .. 50,0000%00:00 (00:00)
320 Panzer Tactics HD May 22, 2014 $2.4935% (72%/69%)20,000 .. 50,0000%00:00 (00:00)
321 Smithy Jun 3, 2016 $0.51N/A (N/A)50,000 .. 100,0000%00:00 (00:00)
322 Lost Planet: Extreme Condition Jun 26, 2007 $2.9935% (72%/66%)200,000 .. 500,0000%00:00 (00:00)
323 Hot Tin Roof: The Cat That Wore A Fedora Feb 20, 2015 $7.4935% (72%/66%)100,000 .. 200,0000%00:00 (00:00)
324 rooMaze Mar 3, 2017 $1.9935% (72%)50,000 .. 100,0000%00:00 (00:00)
325 Cuban Missile Crisis May 6, 2005 $1.2435% (72%)20,000 .. 50,0000%00:00 (00:00)
326 Airship Dragoon Aug 26, 2014 $9.99N/A (N/A)0 .. 20,0000%00:00 (00:00)
327 Warp Mar 21, 2012 $2.4935% (72%)20,000 .. 50,0000%00:00 (00:00)
328 Battle Fleet 2 Nov 20, 2014 $5.2435% (72%)20,000 .. 50,0000%00:00 (00:00)
329 Pongo May 11, 2015 $0.4935% (72%)50,000 .. 100,0000.88%00:03 (00:01)
330 Tom Clancy's EndWar Feb 25, 2009 $3.3935% (72%/68%)50,000 .. 100,0000%00:00 (00:00)
331 Deadnaut Nov 27, 2014 $4.9935% (72%)0 .. 20,0000%00:00 (00:00)
332 A.R.E.S.: Extinction Agenda Jan 20, 2011 $0.9933% (71%/68%)100,000 .. 200,0000.77%04:04 (01:21)
333 Disney Planes Aug 6, 2013 $5.99N/A (N/A)0 .. 20,0000%00:00 (00:00)
334 Elliot Quest Nov 10, 2014 $9.9933% (71%)20,000 .. 50,0000%00:00 (00:00)
335 Little King's Story Aug 5, 2016 $4.9933% (71%/62%)0 .. 20,0000%00:00 (00:00)
336 Elven Legacy Apr 7, 2009 $1.2433% (71%/71%)50,000 .. 100,0000%00:00 (00:00)
337 REDCON Apr 22, 2016 $5.9933% (71%)0 .. 20,0000%00:00 (00:00)
338 Revolution Under Siege Gold Jul 2, 2015 $6.2433% (71%)0 .. 20,0000%00:00 (00:00)
339 Zombie Camp Jul 31, 2016 $1.99N/A (N/A)0 .. 20,0000%00:00 (00:00)
340 The Last Federation Apr 18, 2014 $4.9933% (71%/72%)50,000 .. 100,0000%00:00 (00:00)
341 Space Colony: Steam Edition Apr 30, 2015 $14.9933% (71%/74%)20,000 .. 50,0001.96%03:12 (01:04)
342 Jagged Alliance 2 - Wildfire Mar 8, 2004 $1.3932% (70%)200,000 .. 500,0000.7%05:13 (06:32)
343 Pigmentone Jul 8, 2016 $0.49N/A (N/A)0 .. 20,0000%00:00 (00:00)
344 BitMaster Oct 12, 2016 $0.8932% (70%)200,000 .. 500,0000.17%00:02 (00:00)
345 Strategy & Tactics: Wargame Collection Apr 22, 2016 $2.4932% (70%)20,000 .. 50,0001.85%03:17 (02:11)
346 Wildlife Park 2 - Crazy Zoo Mar 30, 2007 $2.79N/A (N/A)0 .. 20,0000%00:00 (00:00)
347 Alea Jacta Est Sep 27, 2012 $9.7432% (70%)20,000 .. 50,0000%00:00 (00:00)
348 Incandescent Jun 30, 2015 $0.4930% (69%)20,000 .. 50,0000%00:00 (00:00)
349 Brigade E5: New Jagged Union Oct 17, 2006 $0.9930% (69%/41%)0 .. 20,0000%00:00 (00:00)
350 YAIBA: NINJA GAIDEN Z Mar 21, 2014 $5.9930% (69%/49%)20,000 .. 50,0000%00:00 (00:00)
351 1775: Rebellion Sep 29, 2016 $24.99N/A (N/A)0 .. 20,0000%00:00 (00:00)
352 UnSummoning: the Spectral Horde Dec 21, 2015 $3.99N/A (N/A)0 .. 20,0000%00:00 (00:00)
353 Quick Slick Deadly Sep 21, 2015 $0.4930% (69%)20,000 .. 50,0001.1%02:03 (00:41)
354 Guns n Zombies Oct 30, 2014 $0.7930% (69%)100,000 .. 200,0001.96%01:18 (01:07)
355 Spud's Quest Jul 31, 2014 $1.59N/A (N/A)0 .. 20,00020%05:32 (01:50)
356 Collapse Sep 25, 2008 $1.9930% (69%)50,000 .. 100,0001.54%00:01 (00:00)
357 FIVE: Guardians of David Nov 24, 2015 $2.4930% (69%/66%)20,000 .. 50,0000%00:00 (00:00)
358 Warrior Kings Apr 13, 2002 $1.4930% (69%/73%)20,000 .. 50,0000%00:00 (00:00)
359 Sol 0: Mars Colonization Jan 15, 2016 $3.9930% (69%)20,000 .. 50,0000%00:00 (00:00)
360 The Nightmare Cooperative Jul 16, 2014 $1.2430% (69%)50,000 .. 100,0000%00:00 (00:00)
361 Theatre of War 2: Africa 1943 Apr 24, 2009 $1.2429% (68%/63%)100,000 .. 200,0000%00:00 (00:00)
362 Zombie City Defense 2 Aug 19, 2016 $2.7929% (68%)0 .. 20,0000%00:00 (00:00)
363 ManaCollect Apr 17, 2015 $6.9929% (68%)0 .. 20,0003.45%05:20 (01:46)
364 Fair Strike Apr 23, 2015 $0.51N/A (N/A/56%)0 .. 20,0000%00:00 (00:00)
365 Survivor Squad: Gauntlets Nov 16, 2015 $4.9929% (68%)20,000 .. 50,0000%00:00 (00:00)
366 Stonerid Dec 18, 2013 $0.4929% (68%)20,000 .. 50,0000.96%00:30 (00:10)
367 Space Food Truck Mar 25, 2016 $2.4929% (68%)0 .. 20,0000%00:00 (00:00)
368 RISK: Factions Mar 8, 2011 $2.4929% (68%/77%)50,000 .. 100,0005.88%00:44 (00:29)
369 The Hive Aug 25, 2016 $9.9929% (68%)20,000 .. 50,0000%00:00 (00:00)
370 Toy Odyssey: The Lost and Found Sep 20, 2016 $7.4929% (68%/66%)50,000 .. 100,0001.73%02:29 (01:57)
371 Toren May 11, 2015 $9.9929% (68%/57%)50,000 .. 100,0000%00:00 (00:00)
372 Warhammer 40,000: Armageddon - Da Orks Aug 18, 2016 $11.79N/A (N/A)0 .. 20,0000%00:00 (00:00)
373 Zafehouse: Diaries Sep 6, 2013 $0.9927% (67%)50,000 .. 100,0000%00:00 (00:00)
374 Mad Combat Marines Jul 13, 2016 $0.4927% (67%)20,000 .. 50,0000%00:00 (00:00)
375 Kill The Plumber Dec 31, 2015 $4.9927% (67%)0 .. 20,0000%00:00 (00:00)
376 Bedlam Oct 13, 2015 $12.9927% (67%/54%)100,000 .. 200,0000.46%02:01 (00:40)
377 Nomad Fleet Apr 19, 2016 $0.9927% (67%)20,000 .. 50,0000%00:00 (00:00)
378 Chainsaw Warrior Oct 7, 2013 $1.2427% (67%)100,000 .. 200,0000%00:00 (00:00)
379 7th Legion Jan 1, 1997 $1.7427% (67%)20,000 .. 50,0000%00:00 (00:00)
380 Sky To Fly: Faster Than Wind Mar 25, 2016 $2.9926% (66%)0 .. 20,0000%00:00 (00:00)
381 Platypus II Mar 17, 2007 $0.6926% (66%)200,000 .. 500,0000.39%02:21 (01:33)
382 Commander Cool 2 Dec 17, 2015 $2.9926% (66%)50,000 .. 100,0002.56%00:20 (00:11)
383 Men of War: Condemned Heroes Apr 12, 2012 $1.9926% (66%/57%)100,000 .. 200,0000%00:00 (00:00)
384 Scourge: Outbreak Apr 2, 2014 $7.9926% (66%)100,000 .. 200,0000%00:00 (00:00)
385 Sengoku Sep 15, 2011 $2.4926% (66%/70%)100,000 .. 200,0000%00:00 (00:00)
386 The Living Dungeon Nov 2, 2015 $4.4126% (66%)0 .. 20,0000%00:00 (00:00)
387 March of the Eagles Feb 18, 2013 $4.9926% (66%/71%)50,000 .. 100,0000%00:00 (00:00)
388 1849 May 8, 2014 $5.9926% (66%)20,000 .. 50,0000%00:00 (00:00)
389 Royal Defense Nov 6, 2014 $0.4926% (66%)50,000 .. 100,0000.47%02:54 (00:58)
390 Hunters Of The Dead Sep 4, 2014 $0.7425% (65%)20,000 .. 50,0000%00:00 (00:00)
391 Assassin’s Creed Chronicles: India Jan 12, 2016 $3.3925% (65%)20,000 .. 50,0002.38%01:59 (00:39)
392 Malebolgia May 6, 2015 $12.9925% (65%)0 .. 20,0000%00:00 (00:00)
393 Ground Breakers Jun 15, 2016 $2.49N/A (N/A)0 .. 20,0000%00:00 (00:00)
394 Theatre of War 2: Kursk 1943 Mar 9, 2010 $1.2425% (65%)50,000 .. 100,0000%00:00 (00:00)
395 Zombie Tycoon 2: Brainhov's Revenge Dec 9, 2013 $1.2425% (65%)50,000 .. 100,0000%00:00 (00:00)
396 Devil's Dare 悪魔の挑戦 Oct 21, 2014 $12.9925% (65%)20,000 .. 50,0000%00:00 (00:00)
397 Marauder Sep 10, 2009 $0.9925% (65%)50,000 .. 100,0000%00:00 (00:00)
398 8-Bit Commando Jul 27, 2011 $1.7925% (65%)50,000 .. 100,0000%00:00 (00:00)
399 Infinity Runner Jul 14, 2014 $2.7925% (65%/56%)0 .. 20,0000%00:00 (00:00)
400 Spirit of War Mar 12, 2015 $9.99N/A (N/A)20,000 .. 50,0001.96%04:49 (01:36)
401 Frozen Synapse Prime Nov 14, 2014 $2.4925% (65%/83%)100,000 .. 200,0000%00:00 (00:00)
402 A Game of Dwarves Oct 23, 2012 $2.4924% (64%/60%)50,000 .. 100,0000%00:00 (00:00)
403 SPACECOM Sep 17, 2014 $1.9924% (64%/68%)100,000 .. 200,0000.83%03:18 (02:11)
404 Rise: Battle Lines Nov 17, 2015 $0.4924% (64%)0 .. 20,0000%00:00 (00:00)
405 Revenge of Roger Rouge Apr 22, 2016 $0.74N/A (N/A)20,000 .. 50,0001.17%03:01 (01:14)
406 The Seven Years War (1756-1763) Oct 30, 2015 $6.9924% (64%)0 .. 20,0000%00:00 (00:00)
407 Double Dragon IV Jan 30, 2017 $3.4924% (64%/50%)0 .. 20,0000%00:00 (00:00)
408 Link Apr 22, 2016 $4.99N/A (N/A)0 .. 20,0000%00:00 (00:00)
409 Jagged Alliance: Crossfire Aug 24, 2012 $2.9924% (64%/63%)100,000 .. 200,0000%00:00 (00:00)
410 Warlock 2: The Exiled Apr 10, 2014 $4.9924% (64%/73%)50,000 .. 100,0000%00:00 (00:00)
411 Zoo Rampage Jul 9, 2014 $3.9924% (64%)0 .. 20,0000%00:00 (00:00)
412 Battle Worlds: Kronos Nov 4, 2013 $4.9924% (64%/71%)20,000 .. 50,0000%00:00 (00:00)
413 Disney Pirates of the Caribbean: At Worlds End May 22, 2007 $5.9924% (64%)0 .. 20,0000%00:00 (00:00)
414 Kaiju-A-GoGo Apr 23, 2015 $9.9924% (64%)20,000 .. 50,0001.85%01:49 (00:36)
415 Urban Pirate Jun 17, 2016 $1.74N/A (N/A)0 .. 20,0000%00:00 (00:00)
416 Beasts Battle Jun 15, 2016 $1.5924% (64%)0 .. 20,0000%00:00 (00:00)
417 War, the Game Jan 12, 2015 $6.9922% (63%/65%)20,000 .. 50,0000%00:00 (00:00)
418 Will Fight for Food: Super Actual Sellout: Game of the Hour Apr 22, 2015 $5.99N/A (N/A)0 .. 20,0002.08%03:55 (01:18)
419 Desert Ashes Nov 10, 2014 $4.9922% (63%)20,000 .. 50,0000%00:00 (00:00)
420 Crazy Forest Jul 6, 2016 $0.4922% (63%)100,000 .. 200,0000.88%02:24 (01:04)
421 Pixel Boy and the Ever Expanding Dungeon May 30, 2014 $0.9922% (63%)20,000 .. 50,0000%00:00 (00:00)
422 Flashback Oct 1, 2013 $3.3921% (62%)20,000 .. 50,0005.88%06:51 (02:17)
423 Freight Tycoon Inc. Aug 15, 2007 $1.2421% (62%)20,000 .. 50,0000%00:00 (00:00)
424 4089: Ghost Within Jan 9, 2015 $1.7921% (62%)0 .. 20,0000%00:00 (00:00)
425 Port Royale 2 Apr 30, 2004 $0.9921% (62%/75%)50,000 .. 100,0000%00:00 (00:00)
426 Bombshell Jan 29, 2016 $34.9921% (62%)0 .. 20,0000%00:00 (00:00)
427 Goblin Defenders: Steel‘n’ Wood Nov 23, 2015 $1.0421% (62%)20,000 .. 50,0001.32%03:26 (01:08)
428 Sorcerer King: Rivals Sep 22, 2016 $6.7421% (62%)0 .. 20,0000%00:00 (00:00)
429 Battleplan: American Civil War Jul 4, 2014 $1.4921% (62%/66%)100,000 .. 200,0000.25%00:01 (00:00)
430 Hyperspace Pinball Sep 30, 2015 $2.99N/A (N/A)0 .. 20,0000%00:00 (00:00)
431 My Super Tower 2 Jan 27, 2017 $0.49N/A (N/A)0 .. 20,0000%00:00 (00:00)
432 The Few Jun 18, 2014 $7.9921% (62%)20,000 .. 50,0000%00:00 (00:00)
433 Supreme Ruler: Cold War Jul 29, 2011 $1.9921% (62%/63%)20,000 .. 50,0000%00:00 (00:00)
434 Disney Epic Mickey 2: The Power of Two Nov 18, 2012 $9.9921% (62%)20,000 .. 50,0000%00:00 (00:00)
435 Purgatory Jun 22, 2016 $0.4920% (61%)200,000 .. 500,0000.3%00:59 (01:17)
436 Men of War: Vietnam Sep 8, 2011 $1.9920% (61%/68%)100,000 .. 200,0000.82%00:12 (00:04)
437 Legions of Steel Jul 16, 2015 $4.99N/A (N/A/64%)0 .. 20,0000%00:00 (00:00)
438 Spice Road Apr 24, 2014 $3.99N/A (N/A)0 .. 20,0000%00:00 (00:00)
439 Call of Duty: Black Ops - Mac Edition Sep 27, 2012 $19.9920% (61%)50,000 .. 100,0000%00:00 (00:00)
440 E.T. Armies Mar 3, 2016 $2.2420% (61%/54%)0 .. 20,0000%00:00 (00:00)
441 Gnumz: Masters of Defense Dec 21, 2015 $0.4920% (61%)20,000 .. 50,0003.45%02:10 (03:29)
442 To End All Wars Aug 29, 2014 $11.9920% (61%/71%)0 .. 20,0000%00:00 (00:00)
443 Patrician IV - Steam Special Edition Sep 17, 2010 $3.7419% (60%/66%)100,000 .. 200,0001.38%01:52 (01:11)
444 Quarantine May 24, 2017 $2.9919% (60%)0 .. 20,0000%00:00 (00:00)
445 Disciples III - Renaissance Steam Special Edition Jul 16, 2010 $3.7419% (60%/56%)100,000 .. 200,0000%00:00 (00:00)
446 Skyshine's BEDLAM Sep 16, 2015 $4.9919% (60%/67%)20,000 .. 50,0000%00:00 (00:00)
447 Grim Seventh Jan 20, 2017 FreeN/A (N/A)0 .. 20,0000%00:00 (00:00)
448 Close Combat - Panthers in the Fog May 14, 2015 $9.9919% (60%)0 .. 20,0000%00:00 (00:00)
449 Cemetery Warrior 3 Feb 3, 2017 $0.4919% (60%)50,000 .. 100,0000%00:00 (00:00)
450 Merchants of Kaidan Nov 10, 2014 $1.4919% (60%)100,000 .. 200,0003.38%05:19 (07:47)
451 Code of Princess Apr 14, 2016 $5.9919% (60%/53%)0 .. 20,0000%00:00 (00:00)
452 Stay Dead Evolution Feb 4, 2015 $1.0119% (60%)20,000 .. 50,0001.35%03:46 (01:15)
453 Overruled! Sep 15, 2015 $3.2419% (60%)20,000 .. 50,0000%00:00 (00:00)
454 Woolfe - The Red Hood Diaries Mar 17, 2015 $9.9919% (60%/55%)50,000 .. 100,0002.41%00:42 (00:28)
455 Woodle Tree 2: Worlds Sep 16, 2016 $1.5918% (59%)20,000 .. 50,0002.42%05:12 (03:31)
456 Check vs Mate Aug 16, 2012 $2.9918% (59%/69%)0 .. 20,0000%00:00 (00:00)
457 Prospekt Feb 18, 2016 $2.4918% (59%)20,000 .. 50,0005.88%00:20 (00:06)
458 Antisquad Oct 31, 2014 $5.9918% (59%)50,000 .. 100,0000%00:00 (00:00)
459 Armada 2526 Gold Edition Feb 28, 2013 $3.5918% (59%/66%)20,000 .. 50,0000%00:00 (00:00)
460 VR Journey Dec 15, 2016 $0.518% (59%)20,000 .. 50,0000%00:00 (00:00)
461 7 Grand Steps: What Ancients Begat Jun 7, 2013 $11.9918% (59%)100,000 .. 200,0000%00:00 (00:00)
462 Super Helmets on Fire DX Ultra Edition Plus Alpha Feb 15, 2016 $0.99N/A (N/A)0 .. 20,0002.63%00:30 (00:10)
463 Life in Bunker Feb 25, 2016 $7.9918% (59%)0 .. 20,0000%00:00 (00:00)
464 Ninjahtic Mind Tricks Jul 16, 2015 $0.79N/A (N/A)0 .. 20,0000%00:00 (00:00)
465 NOBUNAGA'S AMBITION: Sphere of Influence - Ascension / 信長の野望・創造 戦国立志伝 Mar 23, 2016 $23.9918% (59%)50,000 .. 100,00025%07:25 (02:28)
466 Sir! I'd Like To Report A Bug! Oct 19, 2015 $0.79N/A (N/A)0 .. 20,0000%00:00 (00:00)
467 Ceres Oct 16, 2015 $3.9917% (58%/74%)0 .. 20,0000%00:00 (00:00)
468 DreamBreak Jul 21, 2016 $2.3717% (58%/46%)0 .. 20,0000%00:00 (00:00)
469 Dawn of Andromeda May 4, 2017 $10.1917% (58%/70%)0 .. 20,0000%00:00 (00:00)
470 Adventure World Aug 2, 2016 $4.99N/A (N/A)0 .. 20,0000%00:00 (00:00)
471 Colonial Conquest Jul 28, 2015 $3.9917% (58%)0 .. 20,0005.88%00:44 (00:14)
472 Wanderlust Adventures Aug 10, 2015 $1.4917% (58%)20,000 .. 50,0000%00:00 (00:00)
473 Heavy Fire: Afghanistan Aug 15, 2014 $0.9817% (58%)20,000 .. 50,0000%00:00 (00:00)
474 Prophour23 Oct 22, 2014 $2.4917% (58%)0 .. 20,0000%00:00 (00:00)
475 Unearthed: Trail of Ibn Battuta - Episode 1 - Gold Edition Jan 3, 2014 $1.2416% (57%)20,000 .. 50,0000%00:00 (00:00)
476 Defend Your Crypt Jul 21, 2016 $1.49N/A (N/A)0 .. 20,0004%02:30 (00:50)
477 Gates of Horizon Dec 18, 2014 $1.9916% (57%)0 .. 20,0000%00:00 (00:00)
478 Rise of Venice Sep 27, 2013 $4.9916% (57%/66%)50,000 .. 100,0000%00:00 (00:00)
479 Assault on Arnhem Mar 11, 2016 $9.99N/A (N/A)0 .. 20,0000%00:00 (00:00)
480 Delve Deeper Sep 24, 2010 $4.9915% (56%)50,000 .. 100,0000%00:00 (00:00)
481 Abalone Apr 23, 2014 $4.9915% (56%)0 .. 20,0000%00:00 (00:00)
482 reconquest Dec 16, 2016 $4.7915% (56%)0 .. 20,0000%00:00 (00:00)
483 Horizon Feb 6, 2014 $5.9915% (56%)50,000 .. 100,0000%00:00 (00:00)
484 Pain Train Jan 11, 2017 $0.4914% (55%)50,000 .. 100,0005.17%02:45 (02:03)
485 BC Kings Sep 15, 2008 $0.9914% (55%)20,000 .. 50,0000%00:00 (00:00)
486 Tic-Toc-Tower Sep 28, 2015 $0.514% (54%)0 .. 20,0000%00:00 (00:00)
487 Crusaders: Thy Kingdom Come Oct 8, 2009 $2.49N/A (N/A)20,000 .. 50,0000%00:00 (00:00)
488 Wickland Nov 14, 2014 $0.4914% (54%)50,000 .. 100,0000.6%02:27 (00:49)
489 Smugglers 5 Apr 11, 2014 $3.9913% (53%)20,000 .. 50,0000%00:00 (00:00)
490 Nightside Apr 2, 2015 $9.9913% (53%)20,000 .. 50,0000%00:00 (00:00)
491 Defence to death May 11, 2017 $1.99N/A (N/A)50,000 .. 100,0000%00:00 (00:00)
492 Armada 2526 Jun 10, 2010 $2.69N/A (N/A/66%)0 .. 20,0000%00:00 (00:00)
493 Urja Jan 9, 2015 $9.9913% (53%)20,000 .. 50,0001.32%00:19 (00:06)
494 Aegis Oct 6, 2016 $0.92N/A (N/A)0 .. 20,0000%00:00 (00:00)
495 RESCUE 2: Everyday Heroes Jun 3, 2015 $3.9913% (53%)20,000 .. 50,0000%00:00 (00:00)
496 Story Of the Survivor Feb 16, 2016 $2.49N/A (N/A)50,000 .. 100,0000%00:00 (00:00)
497 The Campaign Series: Fall Weiss May 30, 2014 $2.2412% (52%)20,000 .. 50,0001.49%05:03 (01:41)
498 Royal Bounty HD Aug 10, 2015 $2.9912% (52%)0 .. 20,0000%00:00 (00:00)
499 Scapeland Mar 31, 2016 $0.5112% (52%)0 .. 20,0000%00:00 (00:00)
500 The Stalin Subway Oct 5, 2006 $0.5112% (52%)20,000 .. 50,0000%00:00 (00:00)
501 Meridian: New World Apr 4, 2014 $1.3912% (52%/43%)50,000 .. 100,0000%00:00 (00:00)
502 Guncraft Aug 9, 2013 $2.2412% (51%/73%)100,000 .. 200,0000%00:00 (00:00)
503 Castle Werewolf 3D Feb 7, 2017 $0.512% (51%)50,000 .. 100,0000%00:00 (00:00)
504 Dusty Revenge:Co-Op Edition Feb 17, 2014 $4.9412% (51%)50,000 .. 100,0000%00:00 (00:00)
505 Biodrone Battle Jul 16, 2015 $0.4912% (51%)100,000 .. 200,0000%00:00 (00:00)
506 MDK2 HD Jul 30, 2012 $7.4912% (51%/73%)0 .. 20,0000%00:00 (00:00)
507 Marvel: Ultimate Alliance 2 Jul 26, 2016 $15.9911% (50%)0 .. 20,0000%00:00 (00:00)
508 Albedo: Eyes from Outer Space Apr 10, 2015 $14.9911% (50%/66%)20,000 .. 50,0000%00:00 (00:00)
509 PeriAreion Feb 19, 2015 $5.99N/A (N/A)0 .. 20,0000%00:00 (00:00)
510 Weather Lord: The Successor's Path May 7, 2015 $0.49N/A (N/A)0 .. 20,0000%00:00 (00:00)
511 MinosMaze - The Minotaur's Labyrinth May 1, 2017 $0.49N/A (N/A)0 .. 20,0000%00:00 (00:00)
512 No Pineapple Left Behind Feb 18, 2016 $1.74N/A (N/A/59%)0 .. 20,0000%00:00 (00:00)
513 Odd||Even Apr 6, 2016 $0.4911% (50%)20,000 .. 50,0000%00:00 (00:00)
514 Kidnapped Aug 4, 2015 $0.7710% (49%)100,000 .. 200,0000.34%01:17 (00:25)
515 Meridian: Squad 22 Aug 11, 2016 $2.9910% (48%)0 .. 20,0000%00:00 (00:00)
516 Z Steel Soldiers Aug 1, 2014 $1.2910% (48%)50,000 .. 100,0001.06%02:51 (01:54)
517 Rubber and Lead Sep 4, 2015 $4.9910% (48%)20,000 .. 50,0000.9%02:03 (00:41)
518 Aggression: Europe Under Fire May 10, 2007 $0.9910% (48%)50,000 .. 100,0000%00:00 (00:00)
519 Synonymy Dec 12, 2014 $0.4910% (48%)0 .. 20,0000%00:00 (00:00)
520 Disposable Heroes Mar 22, 2016 $0.499% (47%)0 .. 20,0006.52%01:54 (01:53)
521 Island Defense Jul 23, 2015 $1.999% (47%)50,000 .. 100,0000%00:00 (00:00)
522 Star Traders: 4X Empires Nov 18, 2014 $4.999% (47%)0 .. 20,0000%00:00 (00:00)
523 Blasting Agent: Ultimate Edition Aug 17, 2016 $2.99N/A (N/A)0 .. 20,0000%00:00 (00:00)
524 ALONE IN SPACE Feb 22, 2016 $9.999% (47%)0 .. 20,0000%00:00 (00:00)
525 Hero Generations Apr 10, 2015 $5.999% (47%)0 .. 20,0000%00:00 (00:00)
526 Crossfire: Dungeons May 21, 2015 $0.519% (47%)0 .. 20,0000%00:00 (00:00)
527 Megamagic: Wizards of the Neon Age Apr 20, 2016 $2.999% (46%/67%)0 .. 20,0002.78%01:31 (00:50)
528 The Stalin Subway: Red Veil Oct 5, 2006 $0.59% (46%)50,000 .. 100,0000%00:00 (00:00)
529 Redemption: Saints And Sinners Nov 18, 2016 $0.499% (46%)50,000 .. 100,0001.05%08:09 (08:08)
530 Magic Quest May 6, 2016 $1.99N/A (N/A)50,000 .. 100,0000%00:00 (00:00)
531 HitBox Jan 30, 2017 Free8% (45%)0 .. 20,0000%00:00 (00:00)
532 The Bluecoats: North vs South May 10, 2012 $0.998% (45%)50,000 .. 100,0000%00:00 (00:00)
533 Hell Nov 13, 2014 $4.79N/A (N/A)0 .. 20,0000%00:00 (00:00)
534 Impire Feb 14, 2013 $4.998% (45%/45%)100,000 .. 200,0000%00:00 (00:00)
535 Carrier Command: Gaea Mission Sep 28, 2012 $6.598% (45%/60%)200,000 .. 500,0000.78%00:09 (00:03)
536 Chronostorm: Siberian Border Nov 20, 2015 $0.49N/A (N/A)0 .. 20,0000%00:00 (00:00)
537 World War 2: Time of Wrath Jun 15, 2009 $0.998% (45%)20,000 .. 50,0000%00:00 (00:00)
538 Commander: Conquest of the Americas Jul 30, 2010 $9.998% (45%/68%)50,000 .. 100,0000%00:00 (00:00)
539 Battle Chess: Game of Kings Dec 11, 2015 $29.998% (45%)0 .. 20,0000%00:00 (00:00)
540 DUNGEONS - Steam Special Edition Feb 10, 2011 $1.998% (44%/65%)200,000 .. 500,0000%00:00 (00:00)
541 Skyward Collapse May 23, 2013 $1.248% (44%/64%)100,000 .. 200,0000%00:00 (00:00)
542 Nux Dec 26, 2006 $0.69N/A (N/A)100,000 .. 200,0000.74%01:40 (02:06)
543 Pride of Nations Jun 8, 2011 $4.798% (44%/70%)20,000 .. 50,0000%00:00 (00:00)
544 Vendetta - Curse of Raven's Cry Nov 20, 2015 $9.897% (43%)0 .. 20,00012.5%07:08 (02:31)
545 Samudai Feb 9, 2015 $2.997% (42%)20,000 .. 50,0000%00:00 (00:00)
546 The Entente Gold Aug 11, 2003 $0.497% (42%)50,000 .. 100,0000%00:00 (00:00)
547 Sword of the Stars II: Enhanced Edition Nov 30, 2012 $4.997% (42%/65%)100,000 .. 200,0000%00:00 (00:00)
548 Burstfire Sep 24, 2015 N/A7% (42%)50,000 .. 100,0000%00:00 (00:00)
549 Rulers of Nations Jul 16, 2014 $9.997% (41%/63%)0 .. 20,0000%00:00 (00:00)
550 Lost in Paradise Aug 20, 2015 $0.987% (41%)20,000 .. 50,0000%00:00 (00:00)
551 Hydraulic Empire Jul 31, 2015 $1.997% (41%)0 .. 20,0000%00:00 (00:00)
552 Infection: Humanity's Last Gasp May 26, 2016 $9.99N/A (N/A)0 .. 20,0000%00:00 (00:00)
553 Devils & Demons Oct 6, 2015 $2.496% (40%)20,000 .. 50,0000%00:00 (00:00)
554 R.I.P.D.: The Game Jul 16, 2013 $1.996% (40%)20,000 .. 50,0000%00:00 (00:00)
555 Strategic War in Europe Mar 21, 2014 $2.246% (40%)20,000 .. 50,0002.44%06:44 (04:29)
556 Dead But Alive! Southern England Oct 2, 2015 $5.996% (40%)0 .. 20,0005.13%03:01 (02:00)
557 Heavy Fire: Shattered Spear Oct 23, 2015 $0.95N/A (N/A)0 .. 20,0000%00:00 (00:00)
558 The Kings' Crusade Oct 8, 2010 $2.496% (40%/71%)50,000 .. 100,0000%00:00 (00:00)
559 Pain Train 2 Mar 16, 2017 $6.996% (40%)0 .. 20,00013.33%03:11 (02:48)
560 Dungeons - The Dark Lord Sep 27, 2011 $4.996% (39%/72%)100,000 .. 200,0000%00:00 (00:00)
561 Zombie Apocalypse: Escape The Undead City Jun 17, 2016 $0.56% (39%)0 .. 20,0000%00:00 (00:00)
562 Dark Matter Oct 17, 2013 $1.796% (39%)0 .. 20,0000%00:00 (00:00)
563 Wave of Darkness Nov 5, 2015 $8.996% (39%)0 .. 20,0000%00:00 (00:00)
564 Control Craft 2 Feb 15, 2016 $0.56% (39%)0 .. 20,0002.22%02:17 (00:45)
565 Tiamat X May 29, 2015 $0.49N/A (N/A)50,000 .. 100,0000%00:00 (00:00)
566 Gratuitous Space Battles 2 Apr 16, 2015 $2.495% (38%)20,000 .. 50,0000%00:00 (00:00)
567 Mechs & Mercs: Black Talons Jan 9, 2015 $1.995% (38%)0 .. 20,0000%00:00 (00:00)
568 Risk Jun 10, 2013 $2.495% (38%)20,000 .. 50,0000%00:00 (00:00)
569 Stellar Impact Apr 12, 2012 $9.995% (37%/74%)50,000 .. 100,0002.41%05:03 (01:41)
570 Kick-Ass 2 Aug 15, 2014 $4.99N/A (N/A)0 .. 20,0000%00:00 (00:00)
571 Knight Adventure Oct 15, 2015 $0.99N/A (N/A)50,000 .. 100,0008.25%05:13 (04:42)
572 Urban Empire Jan 20, 2017 $7.494% (35%/62%)50,000 .. 100,0000%00:00 (00:00)
573 Shadows of War Sep 19, 2014 $0.594% (35%)20,000 .. 50,0000.89%00:01 (00:00)
574 Blue Sheep Mar 31, 2016 $1.99N/A (N/A)0 .. 20,0000%00:00 (00:00)
575 Arma Tactics Oct 1, 2013 $1.794% (34%/47%)200,000 .. 500,0000.58%01:18 (00:51)
576 CTU: Counter Terrorism Unit Apr 22, 2016 $2.994% (34%)0 .. 20,0000%00:00 (00:00)
577 Into the Void Dec 4, 2015 $4.994% (34%)20,000 .. 50,0000%00:00 (00:00)
578 Fallen: A2P Protocol Aug 14, 2015 $9.994% (34%)20,000 .. 50,00012.5%00:04 (00:01)
579 Jagged Alliance Flashback Oct 21, 2014 $3.994% (33%)20,000 .. 50,0000%00:00 (00:00)
580 Sim Junta Aug 18, 2015 $0.494% (33%)0 .. 20,0000%00:00 (00:00)
581 Ranger of the jungle Jul 18, 2016 $1.19N/A (N/A)0 .. 20,0000%00:00 (00:00)
582 Disciples III - Resurrection Oct 11, 2011 $3.744% (32%/63%)100,000 .. 200,0000%00:00 (00:00)
583 Evopollution Apr 23, 2014 $4.993% (31%)0 .. 20,0000%00:00 (00:00)
584 Zombie Zoeds May 20, 2015 $2.993% (31%)200,000 .. 500,0000.67%00:03 (00:03)
585 A Game of Thrones - Genesis Sep 29, 2011 $9.993% (31%)100,000 .. 200,0000%00:00 (00:00)
586 Robotex Nov 18, 2014 $0.493% (31%)100,000 .. 200,0000.4%02:03 (00:41)
587 Ku: Shroud of the Morrigan Mar 17, 2014 $4.993% (31%)20,000 .. 50,0000%00:00 (00:00)
588 Psichodelya Aug 8, 2014 $0.993% (31%)100,000 .. 200,0000%00:00 (00:00)
589 Ground Pounders Jul 15, 2014 $2.49N/A (N/A)0 .. 20,0000%00:00 (00:00)
590 Tank Operations: European Campaign Nov 22, 2013 $4.493% (30%)20,000 .. 50,0000%00:00 (00:00)
591 Power of Defense Aug 4, 2010 $9.99N/A (N/A)0 .. 20,0000%00:00 (00:00)
592 Defenders of Time Nov 4, 2014 N/AN/A (N/A/55%)0 .. 20,0000%00:00 (00:00)
593 Solar Shifter EX Sep 11, 2015 $1.993% (28%)20,000 .. 50,0002.56%02:20 (00:46)
594 Hard Truck Apocalypse: Arcade / Ex Machina: Arcade May 24, 2007 $0.492% (26%)20,000 .. 50,0000%00:00 (00:00)
595 Gridberd Sep 7, 2015 $1.742% (26%)200,000 .. 500,0000%00:00 (00:00)
596 Zombies on a Plane Mar 25, 2016 $1.242% (25%)0 .. 20,0000%00:00 (00:00)
597 One Star Apr 17, 2017 $2.99N/A (N/A)50,000 .. 100,0001.02%01:57 (01:32)
598 APOX Jan 20, 2011 $14.992% (23%/48%)20,000 .. 50,0000%00:00 (00:00)
599 Elite vs. Freedom May 31, 2016 $0.492% (22%)0 .. 20,0000%00:00 (00:00)
600 Lords of the Black Sun Sep 12, 2014 $4.492% (21%)0 .. 20,0007.14%02:01 (00:40)
601 The Asskickers-Steam Edition Feb 6, 2015 $1.992% (21%)0 .. 20,0000%00:00 (00:00)
602 Gemini Wars Nov 2, 2012 $2.692% (19%/53%)20,000 .. 50,0000%00:00 (00:00)
603 Human Extinction Simulator Jan 21, 2015 $4.99N/A (N/A)0 .. 20,0000%00:00 (00:00)
604 Star Project Aug 4, 2016 $0.492% (19%)100,000 .. 200,0003.6%04:31 (04:40)
605 Tryst Sep 14, 2012 $14.99N/A (N/A/50%)0 .. 20,0000%00:00 (00:00)
606 Prison Tycoon 3: Lockdown Aug 1, 2007 $3.491% (16%)20,000 .. 50,0000%00:00 (00:00)
607 Once Bitten, Twice Dead! Jul 7, 2015 $4.991% (13%)20,000 .. 50,0000%00:00 (00:00)
608 Citadels Jul 25, 2013 $3.741% (12%/20%)20,000 .. 50,0000%00:00 (00:00)
609 Bloodbath Jun 16, 2014 $4.49N/A (N/A)0 .. 20,0000%00:00 (00:00)
610 Magnetic By Nature Nov 10, 2014 $9.99N/A (N/A)20,000 .. 50,0000%00:00 (00:00)

Owners of this game also own:

Access restricted.

This feature is only available to users with special access rights. Sorry.

If you want to proceed, you need to register or log in first and then back Steam Spy on Patreon. Look for Indie or Pro pledge.

Don't forget to use the same email as on Steam Spy!

Playtime distribution:

Access restricted.

This feature is only available to users with special access rights. Sorry.

If you want to proceed, you need to register or log in first and then back Steam Spy on Patreon. Look for Indie or Pro pledge.

Don't forget to use the same email as on Steam Spy!

Playtime (2 weeks):

Access restricted.

This feature is only available to users with special access rights. Sorry.

If you want to proceed, you need to register or log in first and then back Steam Spy on Patreon. Look for Indie or Pro pledge.

Don't forget to use the same email as on Steam Spy!

User reviews:

Login required.

Please register or log in to see this information.